Location: Mascot Post Office (historical)
(40.2645°N, 99.5462°W)
Time: 02:47:15
(UTC+00:00)

Cosmos 1331 Rocket - Pass Details

Date: 14 July 2020
Orbit: 749 x 778 km, 74.0° (Epoch: 14 August)

Event Time Altitude Azimuth Distance (km) Brightness Sun altitude
Rises 05:53:22 0° 342° (NNW) 3,268 8.6 -27.0°
Reaches altitude 10° 05:55:46 10° 344° (NNW) 2,336 7.5 -27.1°
Enters shadow 06:00:59 74° 59° (ENE) 809 4.0 -27.3°
